{"data":{"norad_id":65849,"epoch":"2026-05-25T03:43:05.101824Z","epoch_age_seconds":58671,"freshness":"FRESH","line1":"1 65849U 25221AC  26145.15492016  .00015902  00000+0  54771-3 0  9993","line2":"2 65849  53.1577  93.6578 0001070  87.8547 272.2576 15.30209510 37789","mean_motion":15.3020951,"eccentricity":0.000107,"inclination_deg":53.1577,"raan_deg":93.6578,"arg_perigee_deg":87.8547,"mean_anomaly_deg":272.2576,"bstar":0.00054771,"rev_number":3778,"period_min":94.104760857224,"perigee_km":474.45336878741,"apogee_km":475.91998005374,"semimajor_km":6853.3236744206,"source":"CELESTRAK","updated_at":"2026-05-25T13:38:20.947601Z"}}